Asheville, NC

12:20 AM EST on January 20, 2018 (GMT -0500)
Asheville Regional

Weather History for KAVL - July, 2013

Change the Weather History Date:

Sunday, July 14, 2013

  Actual Average Record
Temperature  
Mean Temperature 70 °F 74 °F  
Max Temperature 74 °F 84 °F 94 °F (1954)
Min Temperature 65 °F 64 °F 50 °F (1897)
Degree Days  
Heating Degree Days 0 0  
Month to date heating degree days 0 0  
Since 1 June heating degree days 0 14  
Since 1 July heating degree days 0 0  
Cooling Degree Days 5 9  
Month to date cooling degree days 112 122  
Year to date cooling degree days 365 357  
Since 1 June cooling degree days 314 299  
Growing Degree Days 20 (Base 50)    
Moisture  
Dew Point 67 °F    
Average Humidity 90    
Maximum Humidity 100    
Minimum Humidity 79    
Precipitation  
Precipitation 1.05 in 0.13 in 1.70 in (1948)
Month to date precipitation 10.23 1.96  
Year to date precipitation 48.32 24.86  
Snow  
Snow 0.00 in 0.00 in 0.00 in ()
Month to date snowfall 0.0 0.0  
Since 1 June snowfall 0.0 0.0  
Since 1 July snowfall 0.0 0.0  
Snow Depth 0.00 in    
Sea Level Pressure  
Sea Level Pressure 30.25 in    
Wind  
Wind Speed 4 mph (SSE)    
Max Wind Speed 15 mph    
Max Gust Speed 21 mph    
Visibility 6 miles    
Events Rain    
T = Trace of Precipitation, MM = Missing Value Source: NWS Daily Summary

Daily Weather History Graph

Daily Weather History Graph

Search for Another Location

Airport or City:

Trip Planner

Search our weather history database for the weather conditions in past years. The results will help you decide how hot, cold, wet, or windy it might be!

Date:

Astronomy

Jul. 14, 2013 Rise Set
Actual Time 6:25 AM EDT 8:45 PM EDT
Civil Twilight 5:56 AM EDT 9:15 PM EDT
Nautical Twilight 5:20 AM EDT 9:50 PM EDT
Astronomical Twilight 4:41 AM EDT 10:30 PM EDT
Moon 12:26 PM EDT (7/14) No Moon Set
Length of Visible Light 15h 18m
Length of Day
14h 19m
Waxing Crescent, 35% of the Moon is Illuminated
Jul 14
Waxing Crescent
Jul 15
First Quarter
Jul 22
Full
Jul 29
Last Quarter
Aug 6
New

Hourly Weather History & Observations

Time (EDT) Temp. Dew Point Humidity Pressure Visibility Wind Dir Wind Speed Gust Speed Precip Events Conditions
12:15 AM 69.8 °F 66.2 °F 88% 30.19 in 10.0 mi Calm Calm - 0.00 in   Overcast
12:54 AM 69.1 °F 66.9 °F 93% 30.12 in 9.0 mi Calm Calm - 0.01 in Rain Light Rain
1:02 AM 68.0 °F 66.2 °F 94% 30.19 in 3.0 mi Calm Calm - 0.03 in Rain Heavy Rain
1:54 AM 69.1 °F 66.9 °F 93% 30.11 in 9.0 mi Calm Calm - 0.04 in   Overcast
2:05 AM 69.8 °F 68.0 °F 94% 30.19 in 10.0 mi Calm Calm - N/A   Overcast
2:15 AM 69.8 °F 68.0 °F 94% 30.19 in 10.0 mi Calm Calm - 0.00 in Rain Light Rain
2:54 AM 69.1 °F 68.0 °F 96% 30.11 in 10.0 mi Calm Calm - 0.00 in Rain Light Rain
3:03 AM 69.8 °F 68.0 °F 94% 30.18 in 10.0 mi SSW 3.5 mph - N/A   Overcast
3:24 AM 69.8 °F 68.0 °F 94% 30.18 in 10.0 mi SSE 3.5 mph - 0.00 in Rain Light Rain
3:31 AM 69.8 °F 68.0 °F 94% 30.18 in 10.0 mi Calm Calm - 0.00 in   Overcast
3:54 AM 69.1 °F 68.0 °F 96% 30.11 in 10.0 mi SSE 3.5 mph - 0.00 in   Overcast
4:54 AM 69.1 °F 68.0 °F 96% 30.12 in 3.0 mi SE 3.5 mph - 0.11 in Rain Heavy Rain
5:02 AM 69.8 °F 68.0 °F 94% 30.20 in 9.0 mi SSE 4.6 mph - 0.01 in Rain Light Rain
5:10 AM 69.8 °F 68.0 °F 94% 30.21 in 10.0 mi SSE 5.8 mph - 0.01 in Rain Light Rain
5:30 AM 69.8 °F 68.0 °F 94% 30.21 in 10.0 mi SSE 3.5 mph - 0.01 in   Mostly Cloudy
5:54 AM 69.1 °F 68.0 °F 96% 30.14 in 10.0 mi Calm Calm - 0.01 in   Overcast
6:05 AM 69.8 °F 68.0 °F 94% 30.21 in 10.0 mi Calm Calm - N/A   Overcast
6:23 AM 69.8 °F 68.0 °F 94% 30.22 in 2.5 mi Calm Calm - 0.03 in Rain Heavy Rain
6:34 AM 69.8 °F 68.0 °F 94% 30.23 in 1.8 mi ESE 3.5 mph - 0.12 in Rain Heavy Rain
6:39 AM 69.8 °F 68.0 °F 94% 30.24 in 0.8 mi ESE 8.1 mph - 0.23 in Rain Heavy Rain
6:48 AM 69.8 °F 66.2 °F 88% 30.24 in 1.5 mi SE 4.6 mph - 0.33 in Rain Rain
6:54 AM 68.0 °F 66.9 °F 96% 30.17 in 1.2 mi SSE 10.4 mph - 0.41 in Rain Heavy Rain
7:01 AM 69.8 °F 66.2 °F 88% 30.25 in 2.0 mi Variable 5.8 mph - 0.03 in Rain Light Rain
7:07 AM 69.8 °F 66.2 °F 88% 30.25 in 7.0 mi SE 3.5 mph - 0.03 in Rain Light Rain
7:32 AM 69.8 °F 68.0 °F 94% 30.25 in 10.0 mi SSE 6.9 mph - 0.03 in   Overcast
7:39 AM 69.8 °F 68.0 °F 94% 30.25 in 10.0 mi SSE 5.8 mph - 0.03 in   Overcast
7:54 AM 69.1 °F 68.0 °F 96% 30.19 in 10.0 mi SSE 4.6 mph - 0.03 in   Overcast
8:23 AM 69.8 °F 68.0 °F 94% 30.26 in 10.0 mi SSE 4.6 mph - N/A   Overcast
8:54 AM 69.1 °F 68.0 °F 96% 30.20 in 3.0 mi SSE 4.6 mph - 0.00 in Rain Light Rain
9:40 AM 69.8 °F 68.0 °F 94% 30.28 in 4.0 mi SSE 3.5 mph - 0.05 in Rain Light Rain
9:54 AM 70.0 °F 68.0 °F 93% 30.21 in 10.0 mi SE 4.6 mph - 0.05 in   Overcast
10:39 AM 69.8 °F 68.0 °F 94% 30.30 in 2.5 mi SSE 10.4 mph 19.6 mph 0.01 in Rain Light Rain
10:46 AM 69.8 °F 68.0 °F 94% 30.30 in 3.0 mi SE 9.2 mph - 0.01 in Rain Light Rain
10:54 AM 71.1 °F 68.0 °F 90% 30.23 in 7.0 mi SE 6.9 mph - 0.02 in Rain Light Rain
11:20 AM 71.6 °F 66.2 °F 83% 30.31 in 10.0 mi SE 5.8 mph - 0.00 in   Overcast
11:54 AM 73.0 °F 66.9 °F 81% 30.24 in 10.0 mi SSE 10.4 mph 19.6 mph 0.00 in   Overcast
12:16 PM 71.6 °F 68.0 °F 88% 30.31 in 2.5 mi Variable 4.6 mph - 0.01 in Rain Rain
12:24 PM 71.6 °F 68.0 °F 88% 30.31 in 8.0 mi SE 6.9 mph - 0.01 in Rain Light Rain
12:33 PM 73.4 °F 69.8 °F 88% 30.31 in 10.0 mi Variable 5.8 mph - 0.01 in   Overcast
12:54 PM 71.1 °F 68.0 °F 90% 30.25 in 2.5 mi SE 6.9 mph - 0.02 in Rain Light Rain
1:10 PM 71.6 °F 68.0 °F 88% 30.31 in 3.0 mi Variable 5.8 mph 19.6 mph 0.03 in Rain Light Rain
1:50 PM 71.6 °F 68.0 °F 88% 30.32 in 2.5 mi SSE 11.5 mph 18.4 mph 0.05 in Rain Rain
1:54 PM 71.1 °F 68.0 °F 90% 30.25 in 2.5 mi SSE 12.7 mph 19.6 mph 0.06 in Rain Rain
2:06 PM 71.6 °F 69.8 °F 94% 30.32 in 3.0 mi SSE 9.2 mph 18.4 mph 0.03 in Rain Light Rain
2:14 PM 71.6 °F 68.0 °F 88% 30.32 in 2.5 mi SE 10.4 mph 18.4 mph 0.03 in Rain Light Rain
2:24 PM 71.6 °F 68.0 °F 88% 30.32 in 2.5 mi SSE 12.7 mph - 0.03 in Rain Light Rain
2:54 PM 70.0 °F 69.1 °F 97% 30.26 in 1.0 mi SSE 5.8 mph - 0.06 in Rain Rain
3:01 PM 69.8 °F 68.0 °F 94% 30.33 in 2.0 mi SE 13.8 mph 18.4 mph 0.02 in Rain Rain
3:09 PM 69.8 °F 66.2 °F 88% 30.32 in 2.5 mi SSE 10.4 mph 18.4 mph 0.04 in Rain Light Rain
3:54 PM 73.9 °F 68.0 °F 82% 30.23 in 2.5 mi SSE 5.8 mph - 0.04 in   Overcast
4:01 PM 73.4 °F 68.0 °F 83% 30.30 in 2.5 mi Calm Calm - N/A   Overcast
4:37 PM 71.6 °F 69.8 °F 94% 30.31 in 2.5 mi SSE 8.1 mph - 0.00 in Rain Light Rain
4:54 PM 70.0 °F 68.0 °F 93% 30.24 in 2.5 mi SSE 8.1 mph 18.4 mph 0.01 in Rain Light Rain
5:01 PM 69.8 °F 66.2 °F 88% 30.31 in 2.5 mi SSE 10.4 mph - 0.00 in Rain Light Rain
5:24 PM 69.8 °F 66.2 °F 88% 30.31 in 2.5 mi South 5.8 mph - 0.00 in   Overcast
5:37 PM 69.8 °F 66.2 °F 88% 30.32 in 2.5 mi SSW 5.8 mph - 0.00 in   Overcast
5:41 PM 69.8 °F 68.0 °F 94% 30.32 in 2.5 mi SSW 5.8 mph - 0.00 in   Overcast
5:52 PM 69.8 °F 68.0 °F 94% 30.32 in 2.5 mi South 3.5 mph - 0.00 in   Overcast
5:54 PM 71.1 °F 68.0 °F 90% 30.25 in 2.5 mi SSW 5.8 mph - 0.00 in   Overcast
6:02 PM 71.6 °F 68.0 °F 88% 30.31 in 10.0 mi Calm Calm - N/A   Overcast
6:37 PM 71.6 °F 68.0 °F 88% 30.30 in 10.0 mi Calm Calm - N/A   Mostly Cloudy
6:49 PM 73.4 °F 66.2 °F 78% 30.30 in 10.0 mi Calm Calm - N/A   Mostly Cloudy
6:54 PM 73.9 °F 66.9 °F 79% 30.24 in 10.0 mi Calm Calm - N/A   Overcast
7:29 PM 73.4 °F 66.2 °F 78% 30.32 in 10.0 mi Calm Calm - N/A   Overcast
7:42 PM 71.6 °F 66.2 °F 83% 30.34 in 4.0 mi South 15.0 mph 20.7 mph 0.03 in Rain Light Rain
7:48 PM 68.0 °F 64.4 °F 88% 30.34 in 2.5 mi SE 10.4 mph 20.7 mph 0.04 in Rain Light Rain
7:54 PM 66.9 °F 64.0 °F 90% 30.28 in 2.0 mi SSE 8.1 mph 18.4 mph 0.06 in Rain Rain
8:01 PM 66.2 °F 64.4 °F 94% 30.33 in 3.0 mi ESE 3.5 mph - 0.01 in Rain Light Rain
8:54 PM 66.9 °F 64.9 °F 93% 30.27 in 10.0 mi Calm Calm - 0.01 in   Overcast
9:54 PM 66.0 °F 64.9 °F 96% 30.28 in 10.0 mi Calm Calm - 0.00 in   Clear
10:54 PM 66.0 °F 64.9 °F 96% 30.28 in 10.0 mi SSE 3.5 mph - N/A   Scattered Clouds
11:26 PM 66.2 °F 64.4 °F 94% 30.36 in 3.0 mi Calm Calm - 0.07 in Rain Light Rain
11:54 PM 66.0 °F 64.9 °F 96% 30.30 in 10.0 mi Calm Calm - 0.12 in   Overcast